Location: Newark
(33.2404°N, 35.6778°E)
Time: 00:17:31
(UTC+00:00)

ISS - Visible Passes

Search period start: 21 January 2020 00:00
Search period end: 31 January 2020 00:00
Orbit: 415 x 421 km, 51.6° (Epoch: 21 January)

Date Brightness Start Highest point End Pass type
(mag) Time Alt. Az. Time Alt. Az. Time Alt. Az.
21 Jan -1.6 16:37:58 10° W 16:40:26 19° NW 16:41:07 18° NNW visible
22 Jan -2.2 15:49:17 10° WSW 15:52:18 30° NW 15:55:18 10° NNE visible
24 Jan -1.1 15:51:42 10° WNW 15:53:18 13° NNW 15:54:55 10° N visible
